Alva, OK

5:27 AM CDT on March 28, 2017 (GMT -0500)
Alva Regional

Weather History for KAVK - January, 2014

Change the Weather History Date:

Monday, January 20, 2014

  Actual Average Record
Temperature  
Mean Temperature 46 °F -  
Max Temperature 59 °F 49 °F 76 °F (1951)
Min Temperature 32 °F 25 °F -2 °F (1962)
Degree Days  
Heating Degree Days 20    
Moisture  
Dew Point 19 °F    
Average Humidity 37    
Maximum Humidity 56    
Minimum Humidity 20    
Precipitation  
Precipitation 0.00 in - - ()
Sea Level Pressure  
Sea Level Pressure 30.05 in    
Wind  
Wind Speed 12 mph (North)    
Max Wind Speed 29 mph    
Max Gust Speed 37 mph    
Visibility 10 miles    
Events      
Averages and records for this station are not official NWS values.
T = Trace of Precipitation, MM = Missing Value Source: NWS Daily Summary

Daily Weather History Graph

Daily Weather History Graph

Search for Another Location

Airport or City:

Trip Planner

Search our weather history database for the weather conditions in past years. The results will help you decide how hot, cold, wet, or windy it might be!

Date:

Astronomy

Jan. 20, 2014 Rise Set
Actual Time 7:44 AM CST 5:47 PM CST
Civil Twilight 7:16 AM CST 6:15 PM CST
Nautical Twilight 6:44 AM CST 6:46 PM CST
Astronomical Twilight 6:14 AM CST 7:17 PM CST
Moon 10:15 PM CST (1/20) 9:52 AM CST (1/20)
Length of Visible Light 10h 58m
Length of Day
10h 02m
Waning Gibbous, 82% of the Moon is Illuminated
Jan 20
Waning Gibbous
Jan 23
Last Quarter
Jan 30
New
Feb 6
First Quarter
Feb 14
Full

Hourly Weather History & Observations

Time (CST) Temp. Windchill Dew Point Humidity Pressure Visibility Wind Dir Wind Speed Gust Speed Precip Events Conditions
12:10 AM 37.4 °F 31.4 °F 15.8 °F 41% 29.85 in 10.0 mi SW 8.1 mph - N/A   Clear
12:30 AM 39.2 °F 35.0 °F 15.8 °F 39% 29.86 in 10.0 mi NW 5.8 mph - N/A   Clear
12:50 AM 37.4 °F 32.1 °F 17.6 °F 45% 29.85 in 10.0 mi NW 6.9 mph - N/A   Clear
1:10 AM 39.2 °F 35.0 °F 17.6 °F 42% 29.85 in 10.0 mi WNW 5.8 mph - N/A   Clear
1:30 AM 35.6 °F 29.9 °F 17.6 °F 48% 29.84 in 10.0 mi North 6.9 mph - N/A   Clear
1:50 AM 33.8 °F 27.0 °F 17.6 °F 52% 29.84 in 10.0 mi North 8.1 mph - N/A   Clear
2:10 AM 33.8 °F 24.3 °F 19.4 °F 56% 29.84 in 10.0 mi North 13.8 mph - N/A   Clear
2:30 AM 37.4 °F 28.9 °F 19.4 °F 48% 29.85 in 10.0 mi North 13.8 mph - N/A   Clear
2:50 AM 37.4 °F 30.3 °F 19.4 °F 48% 29.85 in 10.0 mi NNW 10.4 mph - N/A   Scattered Clouds
3:10 AM 37.4 °F 29.8 °F 19.4 °F 48% 29.85 in 10.0 mi NNW 11.5 mph - N/A   Mostly Cloudy
3:30 AM 37.4 °F 30.3 °F 19.4 °F 48% 29.86 in 10.0 mi NNW 10.4 mph - N/A   Overcast
3:50 AM 35.6 °F 28.0 °F 17.6 °F 48% 29.86 in 10.0 mi NNW 10.4 mph - N/A   Mostly Cloudy
4:10 AM 37.4 °F 30.8 °F 19.4 °F 48% 29.85 in 10.0 mi NW 9.2 mph - N/A   Mostly Cloudy
4:30 AM 33.8 °F - 17.6 °F 52% 29.86 in 10.0 mi Calm Calm - N/A   Mostly Cloudy
4:50 AM 35.6 °F 32.8 °F 17.6 °F 48% 29.85 in 10.0 mi NNW 3.5 mph - N/A   Overcast
5:10 AM 35.6 °F 32.8 °F 17.6 °F 48% 29.87 in 10.0 mi NW 3.5 mph - N/A   Scattered Clouds
5:30 AM 32.0 °F - 17.6 °F 55% 29.87 in 10.0 mi Calm Calm - N/A   Mostly Cloudy
5:50 AM 33.8 °F 26.4 °F 17.6 °F 52% 29.88 in 10.0 mi NNW 9.2 mph - N/A   Scattered Clouds
6:10 AM 35.6 °F 28.0 °F 17.6 °F 48% 29.88 in 10.0 mi NNW 10.4 mph - N/A   Scattered Clouds
6:30 AM 37.4 °F 30.3 °F 19.4 °F 48% 29.88 in 10.0 mi NW 10.4 mph - N/A   Mostly Cloudy
6:50 AM 37.4 °F 32.1 °F 19.4 °F 48% 29.88 in 10.0 mi WNW 6.9 mph - N/A   Scattered Clouds
7:10 AM 37.4 °F 30.8 °F 17.6 °F 45% 29.88 in 10.0 mi NW 9.2 mph - N/A   Partly Cloudy
7:30 AM 37.4 °F 31.4 °F 17.6 °F 45% 29.89 in 10.0 mi NW 8.1 mph - N/A   Partly Cloudy
7:50 AM 39.2 °F 32.0 °F 17.6 °F 42% 29.90 in 10.0 mi WNW 11.5 mph - N/A   Partly Cloudy
8:10 AM 39.2 °F 30.8 °F 17.6 °F 42% 29.90 in 10.0 mi NNW 15.0 mph 18.4 mph N/A   Clear
8:30 AM 46.4 °F 39.8 °F 17.6 °F 32% 29.91 in 10.0 mi NNW 16.1 mph 20.7 mph N/A   Clear
8:50 AM 46.4 °F 39.5 °F 17.6 °F 32% 29.93 in 10.0 mi NNW 17.3 mph 25.3 mph N/A   Clear
9:10 AM 46.4 °F 39.5 °F 17.6 °F 32% 29.94 in 10.0 mi NNW 17.3 mph - N/A   Clear
9:30 AM 48.2 °F - 19.4 °F 32% 29.95 in 10.0 mi North 20.7 mph 25.3 mph N/A   Clear
9:50 AM 48.2 °F - 19.4 °F 32% 29.96 in 10.0 mi North 20.7 mph 25.3 mph N/A   Clear
10:10 AM 50.0 °F - 19.4 °F 30% 29.99 in 10.0 mi NNE 23.0 mph 28.8 mph N/A   Clear
10:30 AM 48.2 °F - 19.4 °F 32% 30.01 in 10.0 mi North 20.7 mph 32.2 mph N/A   Clear
10:50 AM 48.2 °F - 23.0 °F 37% 30.02 in 10.0 mi North 25.3 mph 29.9 mph N/A   Clear
11:10 AM 50.0 °F - 23.0 °F 35% 30.04 in 10.0 mi North 23.0 mph 29.9 mph N/A   Clear
11:30 AM 51.8 °F - 23.0 °F 33% 30.05 in 10.0 mi NNE 20.7 mph - N/A   Clear
11:50 AM 53.6 °F - 24.8 °F 33% 30.06 in 10.0 mi NNE 25.3 mph 33.4 mph N/A   Clear
12:10 PM 55.4 °F - 24.8 °F 31% 30.06 in 10.0 mi NNE 25.3 mph 33.4 mph N/A   Clear
12:30 PM 57.2 °F - 24.8 °F 29% 30.06 in 10.0 mi NNE 26.5 mph 32.2 mph N/A   Clear
12:50 PM 57.2 °F - 23.0 °F 27% 30.07 in 10.0 mi NNE 26.5 mph 35.7 mph N/A   Clear
1:10 PM 57.2 °F - 23.0 °F 27% 30.07 in 10.0 mi North 27.6 mph 33.4 mph N/A   Clear
1:30 PM 57.2 °F - 19.4 °F 23% 30.07 in 10.0 mi North 26.5 mph 36.8 mph N/A   Clear
1:50 PM 57.2 °F - 19.4 °F 23% 30.07 in 10.0 mi NNE 28.8 mph 35.7 mph N/A   Clear
2:10 PM 59.0 °F - 19.4 °F 22% 30.08 in 10.0 mi North 20.7 mph 33.4 mph N/A   Clear
2:30 PM 59.0 °F - 17.6 °F 20% 30.08 in 10.0 mi NNE 23.0 mph 33.4 mph N/A   Clear
2:50 PM 57.2 °F - 19.4 °F 23% 30.09 in 10.0 mi North 24.2 mph 32.2 mph N/A   Clear
3:10 PM 59.0 °F - 19.4 °F 22% 30.10 in 10.0 mi North 23.0 mph 27.6 mph N/A   Clear
3:30 PM 59.0 °F - 19.4 °F 22% 30.12 in 10.0 mi North 23.0 mph 31.1 mph N/A   Clear
3:50 PM 57.2 °F - 19.4 °F 23% 30.13 in 10.0 mi North 23.0 mph 33.4 mph N/A   Clear
4:10 PM 57.2 °F - 19.4 °F 23% 30.15 in 10.0 mi North 17.3 mph 25.3 mph N/A   Clear
4:30 PM 57.2 °F - 19.4 °F 23% 30.16 in 10.0 mi North 16.1 mph 27.6 mph N/A   Clear
4:50 PM 57.2 °F - 17.6 °F 21% 30.17 in 10.0 mi North 21.9 mph 28.8 mph N/A   Clear
5:10 PM 55.4 °F - 19.4 °F 25% 30.18 in 10.0 mi North 16.1 mph 26.5 mph N/A   Clear
5:30 PM 53.6 °F - 17.6 °F 24% 30.19 in 10.0 mi North 13.8 mph - N/A   Clear
5:50 PM 50.0 °F - 19.4 °F 30% 30.20 in 10.0 mi North 9.2 mph - N/A   Clear
6:10 PM 48.2 °F - 17.6 °F 30% 30.20 in 10.0 mi North 8.1 mph - N/A   Clear
6:30 PM 46.4 °F 42.9 °F 17.6 °F 32% 30.21 in 10.0 mi North 6.9 mph - N/A   Clear
6:50 PM 44.6 °F 41.4 °F 17.6 °F 34% 30.22 in 10.0 mi NNW 5.8 mph - N/A   Scattered Clouds
7:10 PM 41.0 °F 36.4 °F 17.6 °F 39% 30.23 in 10.0 mi NW 6.9 mph - N/A   Mostly Cloudy
7:30 PM 37.4 °F 30.8 °F 15.8 °F 41% 30.25 in 10.0 mi WNW 9.2 mph - N/A   Overcast
7:50 PM 37.4 °F 31.4 °F 17.6 °F 45% 30.26 in 10.0 mi North 8.1 mph - N/A   Mostly Cloudy
8:10 PM 41.0 °F 35.2 °F 17.6 °F 39% 30.26 in 10.0 mi NNW 9.2 mph - N/A   Scattered Clouds
8:30 PM 41.0 °F 33.9 °F 15.8 °F 36% 30.27 in 10.0 mi NNW 12.7 mph - N/A   Partly Cloudy
8:50 PM 41.0 °F 35.2 °F 15.8 °F 36% 30.28 in 10.0 mi NNW 9.2 mph - N/A   Scattered Clouds
9:10 PM 39.2 °F 33.6 °F 15.8 °F 39% 30.30 in 10.0 mi NNW 8.1 mph - N/A   Partly Cloudy
9:30 PM 39.2 °F 32.5 °F 15.8 °F 39% 30.31 in 10.0 mi NNW 10.4 mph - N/A   Partly Cloudy
9:50 PM 35.6 °F 29.2 °F 15.8 °F 44% 30.32 in 10.0 mi NNW 8.1 mph - N/A   Mostly Cloudy
10:10 PM 41.0 °F 34.3 °F 15.8 °F 36% 30.34 in 10.0 mi North 11.5 mph - N/A   Mostly Cloudy
10:30 PM 39.2 °F 30.5 °F 15.8 °F 39% 30.36 in 10.0 mi North 16.1 mph - N/A   Scattered Clouds
10:50 PM 39.2 °F 29.6 °F 19.4 °F 45% 30.38 in 10.0 mi NNE 19.6 mph 26.5 mph N/A   Scattered Clouds
11:10 PM 37.4 °F 28.2 °F 19.4 °F 48% 30.40 in 10.0 mi North 16.1 mph - N/A   Mostly Cloudy
11:30 PM 37.4 °F 28.2 °F 19.4 °F 48% 30.40 in 10.0 mi North 16.1 mph 23.0 mph N/A   Mostly Cloudy
11:50 PM 35.6 °F 23.4 °F 17.6 °F 48% 30.40 in 10.0 mi North 25.3 mph 31.1 mph N/A   Overcast